CZ-6A DEB, 54549

Orbit data source: Space-Track

CZ-6A DEB, 54549 is space debris in SSO originally from a launch on Fri, 11 Nov 2022 UTC launched from the Taiyaun Space Center, China (TSC). Debris objects in space refer to the collection of defunct objects orbiting the Earth. Examples of debris include non-operational satellites, rocket bodies, and fragments generated from explosions, collisions, or faulty payload assembly.

Loading next visibility...
Identifier
54549, 2022-151KZ
Orbit
SSO
Country
Flag of CNCN / PRC
Related business
Manufacturer
SAST
Mission
Spacecraft
Bus & Motor
Unknown
Mass
Unknown
Launch date (UTC)
2022-11-11 (4 years ago)
Launch vehicle
Unknown
Launch site
Taiyaun Space Center, China (TSC)
Object type
Payload
Rocket body
Debris
Shape & HBR
Unknown shape, 0.1 m
Radar Cross Section
Medium (>0.1 m² and <1 m²)

Expand to show TLE details & history
Last TLE update: 7 hours ago

TLE from 7 hours ago
0 CZ-6A DEB
1 54549U 22151KZ  26238.54635124  .00001753  00000-0  48789-3 0  9994
2 54549  98.5530 272.4550 0108754 124.1651 236.9909 14.44236751198934
Epoch: 2026-08-26T13:06Z
TLE epoch observation values (Epoch: 2026-08-26T13:06:44.747Z)
Latitude
0.00004°
Longitude
100.97075°
Altitude
790.283 km
Speed
7.436 km/s
True Right ascension
18h 09m 49s
True Declination
0° 00' 00"
Sunlit
Object was in daylight at epoch
Visualization orbit readout
Latitude
Unknown
Longitude
Unknown
Altitude
Unknown
Speed
Unknown
Apparent Right ascension
Unknown
Apparent Declination
Unknown
Sunlit
N/A
Visualization observer readout
Local Sidereal Time
11:19:59
Azimuth
Unknown
Elevation
Unknown
Doppler factor
Unknown
Orbital elements
Apogee altitude
819.083 km
Perigee altitude
664.222 km
Semi-major axis
7,119.79 km
Eccentricity
0.01088
Inclination
98.553°
RAAN
272.455°
Arg. of periapsis
124.1651°
True anomaly
235.95357°
Mean anomaly
236.9909°
Eccentric anomaly
236.47146°
Mean motion
3.61279 °/min
Orbital period
99.65 mins
BSTAR
0.00048789
Loading maneuver chart data...
Computing Atmospheric mass density...
Loading historical data...
Loading historical data...
Loading historical data...
Loading historical data...
Loading historical data...
Loading historical data...
Loading historical data...

Documentation

Showing up to 5 results
|